Time,TemperatureF,DewpointF,PressureIn,WindDirection,WindDirectionDegrees,WindSpeedMPH,WindSpeedGustMPH,Humidity,HourlyPrecipIn,Conditions,Clouds,dailyrainin,SolarRadiationWatts/m^2,SoftwareType,DateUTC
2013-02-21 00:21:00,-16.0,-23.0,-100.00,WSW,247,0.0,3.0,68,-99.99,,,0.00,0.000000,,2013-02-21 06:21:00,
2013-02-21 01:22:00,-17.0,-25.0,-100.00,WSW,237,0.0,2.0,67,-99.99,,,0.00,0.000000,,2013-02-21 07:22:00,
2013-02-21 01:32:00,-17.0,-25.0,-100.00,WSW,237,0.0,2.0,67,-99.99,,,0.00,0.000000,,2013-02-21 07:32:00,
2013-02-21 02:01:00,4.0,-1.0,-100.00,East,84,4.0,7.0,81,-99.99,,,0.00,0.000000,,2013-02-21 08:01:00,
2013-02-21 02:21:00,4.0,-1.0,-100.00,East,84,4.0,7.0,81,-99.99,,,0.00,0.000000,,2013-02-21 08:21:00,
2013-02-21 02:32:00,4.0,-1.0,-100.00,East,84,4.0,7.0,81,-99.99,,,0.00,0.000000,,2013-02-21 08:32:00,
2013-02-21 02:42:00,4.0,-1.0,-100.00,East,84,4.0,7.0,81,-99.99,,,0.00,0.000000,,2013-02-21 08:42:00,
2013-02-21 02:52:00,4.0,-1.0,-100.00,East,84,4.0,7.0,81,-99.99,,,0.00,0.000000,,2013-02-21 08:52:00,
2013-02-21 03:01:00,6.0,2.0,-100.00,East,85,3.0,7.0,82,0.00,,,0.00,0.000000,,2013-02-21 09:01:00,
2013-02-21 03:32:00,6.0,2.0,-100.00,East,85,3.0,7.0,82,0.00,,,0.00,0.000000,,2013-02-21 09:32:00,
2013-02-21 03:42:00,6.0,2.0,-100.00,East,85,3.0,7.0,82,0.00,,,0.00,0.000000,,2013-02-21 09:42:00,
2013-02-21 03:52:00,6.0,2.0,-100.00,East,85,3.0,7.0,82,0.00,,,0.00,0.000000,,2013-02-21 09:52:00,
2013-02-21 04:01:00,6.0,2.0,-100.00,East,83,2.0,4.0,83,0.00,,,-99.99,0.000000,,2013-02-21 10:01:00,
2013-02-21 04:31:00,6.0,2.0,-100.00,East,83,2.0,4.0,83,0.00,,,-99.99,0.000000,,2013-02-21 10:31:00,
2013-02-21 04:41:00,6.0,2.0,-100.00,East,83,2.0,4.0,83,0.00,,,-99.99,0.000000,,2013-02-21 10:41:00,
2013-02-21 04:51:00,6.0,2.0,-100.00,East,83,2.0,4.0,83,0.00,,,-99.99,0.000000,,2013-02-21 10:51:00,
2013-02-21 05:01:00,7.0,3.0,-100.00,NNW,335,0.0,4.0,83,0.00,,,0.00,0.000000,,2013-02-21 11:01:00,
2013-02-21 05:31:00,7.0,3.0,-100.00,NNW,335,0.0,4.0,83,0.00,,,0.00,0.000000,,2013-02-21 11:31:00,
2013-02-21 05:41:00,7.0,3.0,-100.00,NNW,335,0.0,4.0,83,0.00,,,0.00,0.000000,,2013-02-21 11:41:00,
2013-02-21 05:52:00,7.0,3.0,-100.00,NNW,335,0.0,4.0,83,0.00,,,0.00,0.000000,,2013-02-21 11:52:00,
2013-02-21 06:01:00,7.0,3.0,-100.00,NNE,12,0.0,2.0,83,0.00,,,0.00,0.000000,,2013-02-21 12:01:00,
2013-02-21 06:32:00,7.0,3.0,-100.00,NNE,12,0.0,2.0,83,0.00,,,0.00,0.000000,,2013-02-21 12:32:00,
2013-02-21 06:43:00,7.0,3.0,-100.00,NNE,12,0.0,2.0,83,0.00,,,0.00,0.000000,,2013-02-21 12:43:00,
2013-02-21 06:53:00,7.0,3.0,-100.00,NNE,12,0.0,2.0,83,0.00,,,0.00,0.000000,,2013-02-21 12:53:00,
2013-02-21 08:01:00,9.0,5.0,-100.00,East,83,5.0,8.0,84,-99.99,,,0.00,17.000000,,2013-02-21 14:01:00,
2013-02-21 08:32:00,9.0,5.0,-100.00,East,83,5.0,8.0,84,-99.99,,,0.00,17.000000,,2013-02-21 14:32:00,
2013-02-21 08:42:00,9.0,5.0,-100.00,East,83,5.0,8.0,84,-99.99,,,0.00,17.000000,,2013-02-21 14:42:00,
2013-02-21 08:52:00,9.0,5.0,-100.00,East,83,5.0,8.0,84,-99.99,,,0.00,17.000000,,2013-02-21 14:52:00,
2013-02-21 09:01:00,11.0,7.0,-100.00,East,84,7.0,13.0,84,0.00,,,0.00,57.000000,,2013-02-21 15:01:00,
2013-02-21 09:32:00,11.0,7.0,-100.00,East,84,7.0,13.0,84,0.00,,,0.00,57.000000,,2013-02-21 15:32:00,
2013-02-21 09:42:00,11.0,7.0,-100.00,East,84,7.0,13.0,84,0.00,,,0.00,57.000000,,2013-02-21 15:42:00,
2013-02-21 09:52:00,11.0,7.0,-100.00,East,84,7.0,13.0,84,0.00,,,0.00,57.000000,,2013-02-21 15:52:00,
2013-02-21 10:01:00,13.0,9.0,-100.00,ESE,106,6.0,12.0,84,0.00,,,0.00,113.000000,,2013-02-21 16:01:00,
2013-02-21 10:32:00,13.0,9.0,-100.00,ESE,106,6.0,12.0,84,0.00,,,0.00,113.000000,,2013-02-21 16:32:00,
2013-02-21 10:42:00,13.0,9.0,-100.00,ESE,106,6.0,12.0,84,0.00,,,0.00,113.000000,,2013-02-21 16:42:00,
2013-02-21 10:52:00,13.0,9.0,-100.00,ESE,106,6.0,12.0,84,0.00,,,0.00,113.000000,,2013-02-21 16:52:00,
2013-02-21 11:01:00,16.0,10.0,-100.00,East,81,6.0,11.0,78,0.00,,,0.00,270.000000,,2013-02-21 17:01:00,
2013-02-21 11:32:00,16.0,10.0,-100.00,East,81,6.0,11.0,78,0.00,,,0.00,270.000000,,2013-02-21 17:32:00,
2013-02-21 11:42:00,16.0,10.0,-100.00,East,81,6.0,11.0,78,0.00,,,0.00,270.000000,,2013-02-21 17:42:00,
2013-02-21 11:52:00,16.0,10.0,-100.00,East,81,6.0,11.0,78,0.00,,,0.00,270.000000,,2013-02-21 17:52:00,
2013-02-21 12:01:00,19.0,13.0,-100.00,ENE,65,5.0,10.0,77,0.00,,,0.00,441.000000,,2013-02-21 18:01:00,
2013-02-21 12:32:00,19.0,13.0,-100.00,ENE,65,5.0,10.0,77,0.00,,,0.00,441.000000,,2013-02-21 18:32:00,
2013-02-21 12:42:00,19.0,13.0,-100.00,ENE,65,5.0,10.0,77,0.00,,,0.00,441.000000,,2013-02-21 18:42:00,
2013-02-21 12:52:00,19.0,13.0,-100.00,ENE,65,5.0,10.0,77,0.00,,,0.00,441.000000,,2013-02-21 18:52:00,
2013-02-21 13:01:00,22.0,15.0,-100.00,ENE,62,5.0,9.0,75,0.00,,,0.00,393.000000,,2013-02-21 19:01:00,
2013-02-21 13:22:00,22.0,15.0,-100.00,ENE,62,5.0,9.0,75,0.00,,,0.00,393.000000,,2013-02-21 19:22:00,
2013-02-21 13:32:00,22.0,15.0,-100.00,ENE,62,5.0,9.0,75,0.00,,,0.00,393.000000,,2013-02-21 19:32:00,
2013-02-21 13:42:00,22.0,15.0,-100.00,ENE,62,5.0,9.0,75,0.00,,,0.00,393.000000,,2013-02-21 19:42:00,
2013-02-21 13:52:00,22.0,15.0,-100.00,ENE,62,5.0,9.0,75,0.00,,,0.00,393.000000,,2013-02-21 19:52:00,
2013-02-21 14:01:00,22.0,15.0,-100.00,East,93,7.0,11.0,74,0.00,,,0.00,352.000000,,2013-02-21 20:01:00,
2013-02-21 14:32:00,22.0,15.0,-100.00,East,93,7.0,11.0,74,0.00,,,0.00,352.000000,,2013-02-21 20:32:00,
2013-02-21 14:42:00,22.0,15.0,-100.00,East,93,7.0,11.0,74,0.00,,,0.00,352.000000,,2013-02-21 20:42:00,
2013-02-21 14:53:00,22.0,15.0,-100.00,East,93,7.0,11.0,74,0.00,,,0.00,352.000000,,2013-02-21 20:53:00,
2013-02-21 15:01:00,22.0,15.0,-100.00,East,81,6.0,12.0,74,0.00,,,0.00,317.000000,,2013-02-21 21:01:00,
2013-02-21 15:32:00,22.0,15.0,-100.00,East,81,6.0,12.0,74,0.00,,,0.00,317.000000,,2013-02-21 21:32:00,
2013-02-21 15:42:00,22.0,15.0,-100.00,East,81,6.0,12.0,74,0.00,,,0.00,317.000000,,2013-02-21 21:42:00,
2013-02-21 15:52:00,22.0,15.0,-100.00,East,81,6.0,12.0,74,0.00,,,0.00,317.000000,,2013-02-21 21:52:00,
2013-02-21 16:01:00,20.0,14.0,-100.00,East,80,7.0,14.0,78,0.00,,,0.00,271.000000,,2013-02-21 22:01:00,
2013-02-21 16:22:00,20.0,14.0,-100.00,East,80,7.0,14.0,78,0.00,,,0.00,271.000000,,2013-02-21 22:22:00,
2013-02-21 16:32:00,20.0,14.0,-100.00,East,80,7.0,14.0,78,0.00,,,0.00,271.000000,,2013-02-21 22:32:00,
2013-02-21 16:42:00,20.0,14.0,-100.00,East,80,7.0,14.0,78,0.00,,,0.00,271.000000,,2013-02-21 22:42:00,
2013-02-21 16:52:00,20.0,14.0,-100.00,East,80,7.0,14.0,78,0.00,,,0.00,271.000000,,2013-02-21 22:52:00,
2013-02-21 17:01:00,18.0,14.0,-100.00,East,85,6.0,13.0,84,0.00,,,0.00,109.000000,,2013-02-21 23:01:00,
2013-02-21 17:32:00,18.0,14.0,-100.00,East,85,6.0,13.0,84,0.00,,,0.00,109.000000,,2013-02-21 23:32:00,
2013-02-21 17:42:00,18.0,14.0,-100.00,East,85,6.0,13.0,84,0.00,,,0.00,109.000000,,2013-02-21 23:42:00,
2013-02-21 17:52:00,18.0,14.0,-100.00,East,85,6.0,13.0,84,0.00,,,0.00,109.000000,,2013-02-21 23:52:00,
2013-02-21 18:01:00,18.0,15.0,-100.00,East,83,5.0,10.0,86,0.00,,,0.00,8.000000,,2013-02-22 00:01:00,
2013-02-21 18:32:00,18.0,15.0,-100.00,East,83,5.0,10.0,86,0.00,,,0.00,8.000000,,2013-02-22 00:32:00,
2013-02-21 18:42:00,18.0,15.0,-100.00,East,83,5.0,10.0,86,0.00,,,0.00,8.000000,,2013-02-22 00:42:00,
2013-02-21 18:52:00,18.0,15.0,-100.00,East,83,5.0,10.0,86,0.00,,,0.00,8.000000,,2013-02-22 00:52:00,
2013-02-21 19:01:00,17.0,15.0,-100.00,East,89,7.0,14.0,90,0.00,,,0.00,0.000000,,2013-02-22 01:01:00,
2013-02-21 19:32:00,17.0,15.0,-100.00,East,89,7.0,14.0,90,0.00,,,0.00,0.000000,,2013-02-22 01:32:00,
2013-02-21 19:42:00,17.0,15.0,-100.00,East,89,7.0,14.0,90,0.00,,,0.00,0.000000,,2013-02-22 01:42:00,
2013-02-21 19:52:00,17.0,15.0,-100.00,East,89,7.0,14.0,90,0.00,,,0.00,0.000000,,2013-02-22 01:52:00,
2013-02-21 20:01:00,16.0,14.0,-100.00,East,96,8.0,15.0,90,0.00,,,0.00,0.000000,,2013-02-22 02:01:00,
2013-02-21 20:32:00,16.0,14.0,-100.00,East,96,8.0,15.0,90,0.00,,,0.00,0.000000,,2013-02-22 02:32:00,
2013-02-21 20:42:00,16.0,14.0,-100.00,East,96,8.0,15.0,90,0.00,,,0.00,0.000000,,2013-02-22 02:42:00,
2013-02-21 20:52:00,16.0,14.0,-100.00,East,96,8.0,15.0,90,0.00,,,0.00,0.000000,,2013-02-22 02:52:00,
2013-02-21 21:01:00,17.0,15.0,-100.00,East,100,9.0,15.0,90,0.00,,,0.00,0.000000,,2013-02-22 03:01:00,
2013-02-21 21:32:00,17.0,15.0,-100.00,East,100,9.0,15.0,90,0.00,,,0.00,0.000000,,2013-02-22 03:32:00,
2013-02-21 21:42:00,17.0,15.0,-100.00,East,100,9.0,15.0,90,0.00,,,0.00,0.000000,,2013-02-22 03:42:00,
2013-02-21 21:52:00,17.0,15.0,-100.00,East,100,9.0,15.0,90,0.00,,,0.00,0.000000,,2013-02-22 03:52:00,
2013-02-21 22:01:00,17.0,15.0,-100.00,ESE,102,7.0,17.0,90,0.00,,,0.00,0.000000,,2013-02-22 04:01:00,
2013-02-21 22:32:00,17.0,15.0,-100.00,ESE,102,7.0,17.0,90,0.00,,,0.00,0.000000,,2013-02-22 04:32:00,
2013-02-21 22:42:00,17.0,15.0,-100.00,ESE,102,7.0,17.0,90,0.00,,,0.00,0.000000,,2013-02-22 04:42:00,
2013-02-21 22:52:00,17.0,15.0,-100.00,ESE,102,7.0,17.0,90,0.00,,,0.00,0.000000,,2013-02-22 04:52:00,
2013-02-21 23:01:00,18.0,16.0,-100.00,East,98,8.0,15.0,90,0.00,,,0.00,0.000000,,2013-02-22 05:01:00,
2013-02-21 23:22:00,18.0,16.0,-100.00,East,98,8.0,15.0,90,0.00,,,0.00,0.000000,,2013-02-22 05:22:00,
2013-02-21 23:32:00,18.0,16.0,-100.00,East,98,8.0,15.0,90,0.00,,,0.00,0.000000,,2013-02-22 05:32:00,
2013-02-21 23:42:00,18.0,16.0,-100.00,East,98,8.0,15.0,90,0.00,,,0.00,0.000000,,2013-02-22 05:42:00,
2013-02-21 23:52:00,18.0,16.0,-100.00,East,98,8.0,15.0,90,0.00,,,0.00,0.000000,,2013-02-22 05:52:00,